Location: Emblem
(62.4273°N, 6.4710°E)
Time: 17:03:08
(UTC+02:00)

Transit 4A - Pass Details

Date: 07 February 2023
Orbit: 867 x 976 km, 66.8° (Epoch: 31 March)

Event Time Altitude Azimuth Distance (km) Brightness Sun altitude
Rises 17:35:35 0° 193° (SSW) 3,447 11.4 -5.4°
Reaches altitude 10° 17:38:14 10° 185° (S) 2,512 10.6 -5.7°
Maximum altitude 17:43:23 35° 122° (ESE) 1,391 8.6 -6.2°
Drops below altitude 10° 17:48:36 10° 59° (ENE) 2,545 9.5 -6.8°
Enters shadow 17:49:16 - 56° (ENE) 2,773 9.7 -6.8°
